loading
|
Showing default

ATS 1, 2608

Orbit data source: Space-Track

ATS 1, 2608 is a payload satellite owned by GSFC (US) in GEO that was launched on Wed, 07 Dec 1966 UTC via an ATLAS SLV-3 AGENA D launch vehicle from the Air Force Eastern Test Range (AFETR). Payloads include a variety of satellites, spacecraft, and rockets equipped with specific instruments for various scientific and technological missions. These include communications satellites like Starlink; space stations such as the ISS; scientific satellites like the Hubble; Earth observation satellites from companies like Planet Labs, Umbra, and HawkEye 360; GPS; miniature CubeSats for education and research; and military/defense satellites.

Next visibility unknown
Next conjunction unknown
Loading greatness...
ATS 1 details
Identifier
2608, 1966-110A
Orbit
GEO
Last TLE update16 hours ago
Origin
Flag of USGSFC (US)
ManufacturerHughes
MissionNon-operational Civil Communications
Bus & MotorHS-306, SR-28-3
Mass714 kg wet, 266 kg dry
Launch date (UTC)
1966-12-07 (58 years ago)
Launch vehicle
ATLAS SLV-3 AGENA D
Launch site
Air Force Eastern Test Range (AFETR)
Object type
Payload
Rocket body
Debris
Shape & HBRCyl + 2 Rod, 2.5 m
Radar Cross Section2.651 m², Large (>1 m²)

Expand to show TLE details & history

TLE from 16 hours ago
0 ATS 1
1  2608U 66110A   24286.11583456 -.00000132  00000-0  00000+0 0  9991
2  2608   3.4294  75.2149 0006457 161.4969 168.0433  1.00316969128647
Epoch: 2024-10-12T02:46Z
Definitive object data (Epoch: 2024-10-12T02:46:48.105Z)
Latitude-1.74401°
Longitude-18.0942°
Altitude35,800.33 km
Speed3.073 km/s
True Right ascension02h 59m 07s
True Declination-1° 44' 32"
Sunlit
Object was in daylight at TLE epoch
Predictive object data (real-time)
Latitude-1.77603°
Longitude-136.18176°
Altitude35,756.272 km
Speed3.076 km/s
Apparent Right ascension19h 33m 26s
Apparent Declination-7° 16' 04"
Sunlit
Object is in daylight
Predictive observer data (real-time)
Local Sidereal Time13:18:25
Azimuth93.202° ESE
Elevation-7.526°
Doppler factor1
Orbital elements
Apogee35,802.216 km
Perigee35,747.78 km
Semi-major axis42,153.135 km
Eccentricity0.0006457
Inclination3.4294°
RAAN75.2149°
Arg. of periapsis161.4969°
True anomaly168.05862°
Mean anomaly168.0433°
Eccentric anomaly168.05096°
Mean motion0.25078 °/min
BSTARUnknown
Period1435.5 mins
Authenticating...
2608 neighbors
Authenticating...
No data available
No data available
Other satellites on launch #110 in the year 1966 (1966-12-07 UTC)

ATS 1 Visibility forecast

Observer location: 39.9160978°, -105.1181434

ATS 1 is not visible in the next 10 days
Span
Click to sort rows by Start time (UTC) header in descending order
Start Az.
Max El. time (UTC)
Max El. Az.
Max El.
End time (UTC)
End Az.